This demonstration page uses our WeatherBlox Daily Observations layout. Learn more.

Left ArrowRight Arrow

41.12389, -100.76542

Hourly Observations for May 21, 2017

Temp ( °F °C ) Dew Point ( °F °C ) Humidity (%) Winds ( mph kmh ) Pressure ( in mb ) Visibility ( mi km ) Precip ( " mm )
12:10 am 00:10 Clear with Mist and Fog 33 0.6 32 0 96 96 NW 6 9 30.12 1020 2 2 0.00 0.00
12:13 am 00:13 Clear with Mist and Fog 33 0.6 32 0 96 96 NW 6 9 30.12 1020 4 6 0.00 0.00
12:53 am 00:53 Clear with Mist and Fog 34 1.1 34 1.1 100 100 NW 5 7 30.10 1019 5 8 0.00 0.00
1:07 am 01:07 Clear with Mist and Fog 33 0.6 33 0.6 100 100 NNW 5 7 30.18 1022 2 3 0.00 0.00
1:16 am 01:16 Clear with Mist and Fog 33 0.6 33 0.6 100 100 NW 6 9 30.18 1022 3 5 0.00 0.00
1:41 am 01:41 Clear with Mist and Fog 33 0.6 33 0.6 100 100 NW 5 7 30.18 1022 2 3 0.00 0.00
1:50 am 01:50 Clear with Mist and Fog 32 0 32 0 100 100 NW 5 7 30.18 1022 1 2 0.00 0.00
1:53 am 01:53 Clear with Mist and Fog 32 0 32 0 100 100 NW 5 7 30.10 1019 1 2 0.00 0.00
2:17 am 02:17 Clear with Fog 32 0 32 0 100 100 NNW 5 7 30.18 1022 1 1 0.00 0.00
2:30 am 02:30 Mostly Cloudy with Fog 33 0.6 33 0.6 100 100 NW 6 9 30.18 1022 0 0 0.00 0.00
2:51 am 02:51 Mostly Cloudy with Fog 32 0 32 0 100 100 NW 7 11 30.18 1022 1 1 0.00 0.00
2:53 am 02:53 Mostly Cloudy with Fog 32 0 32 0 100 100 NW 8 13 30.12 1020 1 1 0.00 0.00
3:08 am 03:08 Mostly Clear with Mist and Fog 32 0 32 0 100 100 WNW 7 11 30.18 1022 1 2 0.00 0.00
3:10 am 03:10 Mostly Clear with Mist and Fog 32 0 32 0 100 100 WNW 6 9 30.18 1022 2 3 0.00 0.00
3:18 am 03:18 Clear with Mist and Fog 32 0 31 -0.6 96 96 WNW 6 9 30.18 1022 3 5 0.00 0.00
3:53 am 03:53 Clear with Mist and Fog 31 -0.6 31 -0.6 100 100 WNW 6 9 30.11 1020 5 8 0.00 0.00
4:53 am 04:53 Clear 32 0 31 -0.6 96 96 WNW 6 9 30.12 1020 9 14 0.00 0.00
5:53 am 05:53 Clear 31 -0.6 30 -1.1 96 96 NW 6 9 30.14 1021 10 16 0.00 0.00
6:53 am 06:53 Sunny 32 0 31 -0.6 96 96 NW 8 13 30.15 1021 10 16 0.00 0.00
7:53 am 07:53 Sunny 41 5 40 4.4 96 96 NW 5 7 30.14 1021 10 16 0.00 0.00
8:53 am 08:53 Sunny 48 8.9 43 6.1 83 83 W 7 11 30.15 1021 10 16 0.00 0.00
9:53 am 09:53 Sunny 55 12.8 46 7.8 72 72 WSW 8 13 30.15 1021 10 16 0.00 0.00
10:53 am 10:53 Sunny 60 15.6 44 6.7 56 56 WNW 8 13 30.15 1021 10 16 0.00 0.00
11:53 am 11:53 Sunny 63 17.2 44 6.7 50 50 W 8 13 30.15 1021 10 16 0.00 0.00
12:53 pm 12:53 Sunny 66 18.9 41 5 40 40 W 10 17 30.14 1021 10 16 0.00 0.00
1:53 pm 13:53 Sunny 67 19.4 39 3.9 36 36 W 14 22 30.12 1020 10 16 0.00 0.00
2:53 pm 14:53 Mostly Sunny 68 20 38 3.3 33 33 W 9 15 30.11 1020 10 16 0.00 0.00
3:53 pm 15:53 Sunny 70 21.1 41 5 35 35 W 8 13 30.09 1019 10 16 0.00 0.00
4:53 pm 16:53 Sunny 67 19.4 40 4.4 37 37 WNW 12 19 30.08 1019 10 16 0.00 0.00
5:53 pm 17:53 Cloudy 66 18.9 42 5.6 42 42 W 17 28 30.09 1019 10 16 0.00 0.00
6:53 pm 18:53 Cloudy 66 18.9 46 7.8 49 49 WNW 13 20 30.08 1019 10 16 0.00 0.00
7:53 pm 19:53 Sunny 61 16.1 49 9.4 65 65 W 6 9 30.07 1018 10 16 0.00 0.00
8:53 pm 20:53 Mostly Sunny 56 13.3 47 8.3 72 72 WSW 3 6 30.07 1018 10 16 0.00 0.00
9:53 pm 21:53 Clear 50 10 46 7.8 86 86 Calm 30.09 1019 10 16 0.00 0.00
10:53 pm 22:53 Clear 48 8.9 44 6.7 86 86 NW 7 11 30.11 1020 10 16 0.00 0.00
11:53 pm 23:53 Cloudy 52 11.1 46 7.8 80 80 W 7 11 30.09 1019 10 16 0.00 0.00

Powered by AerisWeather